Location: ??
(34.9170°N, 135.5016°E)
Time: 00:56:20
(UTC+00:00)

RS-15 - Pass Details

Date: 28 April 2021
Orbit: 1888 x 2157 km, 64.8° (Epoch: 12 May)

Event Time Altitude Azimuth Distance (km) Brightness Sun altitude
Rises 14:42:03 0° 329° (NNW) 5,500 11.1 -40.6°
Reaches altitude 10° 14:46:45 10° 344° (NNW) 4,543 10.6 -40.7°
Maximum altitude 14:55:26 22° 32° (NNE) 3,702 9.8 -40.7°
Drops below altitude 10° 15:04:16 10° 80° (E) 4,658 10.1 -40.7°
Sets 15:09:06 0° 95° (E) 5,673 10.5 -40.6°
